Location: Cieszkowy
(50.3290°N, 20.5336°E)
Time: 23:20:06
(UTC+00:00)

Cosmos 1898 Rocket - Pass Details

Date: 15 June 2024
Orbit: 751 x 781 km, 74.0° (Epoch: 18 July)

Event Time Altitude Azimuth Distance (km) Brightness Sun altitude
Exits shadow 01:01:03 11° 232° (SW) 2,200 5.3 -9.9°
Maximum altitude 01:05:43 42° 302° (WNW) 1,074 4.3 -9.5°
Drops below altitude 10° 01:10:37 10° 14° (NNE) 2,286 7.2 -9.0°
Sets 01:13:07 0° 21° (NNE) 3,215 8.6 -8.8°
